Location: Dompnac
(44.5644°N, 4.1026°E)
Time: 13:48:07
(UTC+00:00)

Cosmos 1891 Rocket - Pass Details

Date: 24 January 2021
Orbit: 934 x 1018 km, 82.9° (Epoch: 05 March)

Event Time Altitude Azimuth Distance (km) Brightness Sun altitude
Rises 17:09:35 0° 336° (NNW) 3,602 7.5 -5.4°
Reaches altitude 10° 17:13:01 10° 316° (NW) 2,657 7.1 -6.0°
Maximum altitude 17:16:33 16° 280° (W) 2,237 7.4 -6.5°
Drops below altitude 10° 17:20:06 10° 244° (WSW) 2,666 8.6 -7.1°
Sets 17:23:35 0° 224° (SW) 3,620 8.8 -7.7°
